Regional Weather Roundup
Issued by NWS

Home | Current Version | Previous Version | Graphics & Text | Print | Product List | Glossary On
Versions: 1 2 3 4 5 6 7 8 9 10 11 12 13 14 15 16 17 18 19 20 21 22 23 24 25 26 27 28 29 30 31 32 33 34 35 36 37 38 39 40 41 42 43 44 45 46 47 48 49 50
000
ASUS43 KLSX 230207
RWRMO

WEATHER SUMMARY FOR MISSOURI
NATIONAL WEATHER SERVICE SPRINGFIELD MO
900 PM CDT TUE JUL 22 2014

NOTE: "FAIR" INDICATES FEW OR NO CLOUDS BELOW 12,000 FEET WITH NO
       SIGNIFICANT WEATHER AND/OR OBSTRUCTIONS TO VISIBILITY.
       CURRENT SKY AND/OR WEATHER CONDITIONS ARE NOT AVAILABLE FOR
       CHILLICOTHE AND FARMINGTON.

MOZ001>031-035>038-043-044-053-054-230300-
...NORTHERN AND WESTERN MISSOURI...

CITY           SKY/WX    TMP DP  RH WIND       PRES   REMARKS
KANSAS CTY INT FAIR      87  78  74 N10       30.03R HX 100
KANSAS C DTWN  FAIR      91  76  61 N7        30.00R HX 103
LEE`S SUMMIT   FAIR      89  76  65 NE6       30.03R HX 100
ST JOSEPH      FAIR      84  80  88 NW3       30.02S HX  97
CHILLICOTHE      N/A     86  79  79 CALM      30.02R HX  99
KIRKSVILLE     FAIR      84  80  88 E5        30.03R HX  97

$$
MOZ066>068-077>081-088>096-101>105-230300-
...SOUTHWEST MISSOURI...

CITY           SKY/WX    TMP DP  RH WIND       PRES   REMARKS
SPRINGFIELD    FAIR      83  76  79 SW5       30.06R HX  91
JOPLIN         FAIR      87  74  64 SW5       30.05R HX  95

$$
MOZ032>034-039>042-045>050-055>058-069>072-230300-
...CENTRAL MISSOURI...

CITY           SKY/WX    TMP DP  RH WIND       PRES   REMARKS
COLUMBIA       FAIR      86  79  79 NW7       30.03R HX  99
JEFFERSON CITY FAIR      88  78  72 CALM      30.00R HX 101
ROLLA          MOCLDY    83  73  72 SW7       30.04R
SEDALIA        FAIR      86  78  77 CALM      30.04R HAZE    HX  98
WHITEMAN AFB   FAIR      84  77  78 E1        30.02R HX  94
OSAGE BEACH    FAIR      84  75  74 CALM      30.03R HX  92

$$
MOZ051-052-059>065-230300-
...EAST CENTRAL MISSOURI...

CITY           SKY/WX    TMP DP  RH WIND       PRES   REMARKS
ST LOUIS INTL  CLOUDY    88  71  57 S9        30.02S HX  94
SPIRIT OF STL  MOCLDY    82  75  79 CALM      30.01R
ST CHARLES     FAIR      80  77  90 S7        29.98F

$$
MOZ072>076-082>087-097>100-106>115-230300-
...SOUTH CENTRAL AND SOUTHEAST MISSOURI...

CITY           SKY/WX    TMP DP  RH WIND       PRES   REMARKS
CAPE GIRARDEAU FAIR      76  71  85 W3        30.05R
FARMINGTON     FAIR      77  68  73 S5        30.08R
POPLAR BLUFF   FAIR      75  68  78 CALM      30.04R
WEST PLAINS    FAIR      79  70  74 CALM      30.09R

$$



USA.gov is the U.S. government's official web portal to all federal, state and local government web resources and services.